INMARSAT 6-F1

Last updated on Thu Nov 21 2024 00:02:44 GMT+0000 (Coordinated Universal Time)

1 50319U 21128A 24325.54151203 -.00000171 00000+0 00000+0 0 9997 2 50319 0.0132 299.4951 0000144 322.0283 77.2320 1.00269897 10503
UTC large
Height (km)
Speed (km/s)
/
Latitude / Longitude
Inclination (degrees)
Orbital Period (minutes)
Azimuth
Elevation
Range (km)
Doppler Factor

Next 0 passes for location: London (51.5072 / 0.1276)

Sorry there are no passes over London.